Wind_Speed
15 14 13 13 11 11 10 10 9 8 7 6 5 4 4 5 4 4 5 4 5 6 6 7 8 9 10 10 11 11 11 10 10 9 9 10 10 10 10 9 9 9 9 9 9 9 9 9 10
16 15 14 13 13 12 12 12 10 10 9 7 6 5 6 6 5 5 6 6 7 8 9 9 10 10 11 12 12 12 12 11 11 11 10 11 11 11 11 10 10 11 11 10 10 10 10 10 11
17 16 15 14 14 14 14 14 12 11 10 9 7 7 7 7 7 7 7 8 8 9 10 11 11 12 13 14 14 13 13 13 12 12 12 12 12 12 12 12 12 12 12 12 12 12 12 12 12
17 16 16 15 15 15 15 14 13 12 11 11 10 9 9 9 9 10 10 10 10 11 11 12 12 13 14 15 15 14 14 14 13 13 13 13 14 13 13 13 13 13 13 13 13 14 14 13 13
16 16 15 15 15 16 16 14 14 13 13 12 12 11 10 10 11 12 12 12 12 12 13 13 14 15 15 16 16 15 15 15 15 15 15 15 15 15 15 15 15 15 14 14 14 15 15 15 15
16 15 15 15 16 16 16 15 14 13 13 13 13 13 13 12 12 13 13 13 13 13 14 14 15 15 16 17 17 17 16 16 16 16 16 17 17 17 17 16 16 16 16 15 16 16 16 16 16
15 15 15 15 16 16 16 15 14 14 13 14 15 15 15 14 14 15 15 14 14 15 15 15 15 16 17 18 18 18 18 18 18 18 18 18 18 18 18 18 18 18 18 17 17 17 17 17 17
15 15 15 15 16 17 16 15 15 15 15 15 16 16 16 16 16 16 16 16 16 16 16 16 16 17 18 19 19 20 20 20 20 20 20 20 20 20 20 20 19 19 19 19 19 19 19 19 18
15 14 15 16 16 17 15 15 16 16 16 16 17 17 16 16 17 17 17 17 17 17 18 19 18 19 20 20 20 21 21 21 21 21 21 22 22 22 21 21 21 21 21 21 21 21 20 20 20
15 16 17 17 16 16 16 16 16 17 17 17 17 18 18 18 17 17 17 17 18 18 19 20 20 21 21 21 22 22 22 22 22 22 23 23 24 24 23 22 23 23 23 22 22 22 22 22 22
16 17 17 17 16 16 16 16 16 17 18 18 18 18 18 19 19 19 19 19 20 20 21 21 22 23 23 23 23 23 23 23 24 24 25 24 24 24 24 23 23 24 24 23 23 23 24 25 24
15 16 17 17 16 16 17 17 17 18 18 19 19 19 20 20 21 20 20 20 21 22 22 23 23 24 24 24 24 24 25 25 25 25 25 25 25 24 24 24 25 25 25 25 25 24 25 25 26
14 15 16 17 17 17 17 18 18 18 19 20 20 21 21 21 21 20 21 22 22 22 23 23 23 24 24 25 25 25 26 26 26 26 26 26 25 25 26 26 26 27 27 27 27 26 26 26 26
13 14 15 16 17 17 18 18 18 19 20 20 20 21 22 22 22 21 22 22 23 23 23 24 25 25 25 26 26 26 27 27 27 27 27 27 27 27 27 27 27 28 28 28 28 28 28 27 27
12 13 15 16 17 17 18 18 19 19 19 19 20 21 22 23 23 23 23 23 23 24 24 25 25 25 26 26 25 25 26 26 27 27 27 28 28 28 28 28 29 28 28 28 29 29 29 29 29
11 13 14 16 16 17 17 16 18 18 19 19 20 21 21 22 23 24 24 23 23 24 25 25 26 26 26 25 25 25 26 27 27 27 28 28 28 28 28 29 29 29 28 29 30 30 30 29 30
11 12 15 16 16 17 17 17 18 19 19 20 20 21 21 22 23 24 24 24 24 24 25 25 25 26 25 25 25 25 26 28 28 29 30 29 29 29 29 30 30 30 30 30 31 31 30 30 31
12 13 15 16 16 16 16 17 18 18 19 19 19 20 21 21 22 23 24 24 24 24 25 25 25 25 25 25 25 26 27 28 29 30 31 32 31 30 30 30 31 31 31 31 31 31 31 31 31
13 14 15 16 16 16 17 18 18 18 18 19 20 20 19 20 21 22 23 23 23 24 24 24 25 26 25 25 26 26 27 28 29 30 30 30 30 30 30 31 32 32 32 32 31 32 32 32 32
13 13 14 15 16 17 18 19 19 19 19 20 20 20 19 19 20 21 21 21 22 23 24 25 25 26 25 26 26 26 27 27 28 29 30 30 29 29 30 31 32 32 32 32 32 32 33 33 33
12 13 14 14 16 17 18 17 18 18 19 19 19 18 18 19 20 21 21 22 22 22 23 24 25 25 26 26 26 27 27 28 28 29 30 30 30 30 30 30 31 32 32 31 31 31 32 33 33
12 13 14 15 16 16 16 16 17 18 19 19 18 19 19 20 20 21 21 22 23 23 24 24 25 25 26 27 27 27 28 29 29 29 29 30 30 29 29 29 30 30 30 31 32 32 33 33 32
13 14 15 16 16 17 17 17 17 18 18 19 19 20 20 20 20 21 22 22 23 23 24 25 26 26 26 27 28 28 28 29 30 30 29 29 29 29 29 29 29 29 30 31 32 32 32 32 31
13 14 15 15 15 16 17 17 18 17 19 20 19 19 19 20 20 21 22 22 23 23 24 25 25 26 26 27 27 27 28 29 29 29 28 28 28 28 28 28 29 30 31 31 31 31 31 31 31
14 14 14 14 15 16 18 17 17 18 19 20 20 20 20 20 20 20 21 21 22 23 24 25 25 26 26 26 26 26 27 28 28 28 28 28 28 27 28 28 29 30 31 31 30 31 31 30 30
15 15 16 17 17 17 17 17 18 19 20 20 20 19 19 19 19 20 20 21 21 22 23 24 24 25 25 25 26 26 26 27 27 27 27 27 26 26 28 28 28 29 29 29 29 29 29 28 29
16 16 17 19 20 20 19 19 19 19 19 20 19 18 18 18 19 19 20 20 20 21 22 22 22 23 24 25 26 26 26 26 25 25 24 24 24 25 26 26 27 28 27 27 27 26 26 26 26
16 16 17 18 19 20 20 19 19 19 20 20 19 18 18 19 19 19 19 19 19 19 20 21 21 23 24 25 25 25 25 24 24 23 23 22 23 24 25 25 26 26 25 25 25 25 25 24 24
17 17 17 18 19 20 20 20 20 20 19 18 17 18 18 19 19 19 19 18 18 19 20 21 22 22 23 24 24 23 23 23 22 22 22 22 23 23 24 24 24 24 24 23 23 23 23 23 23
16 17 17 18 19 20 20 21 20 21 20 19 19 19 19 19 19 19 19 18 18 18 19 20 21 22 22 22 23 22 22 21 21 21 21 22 22 22 22 22 23 23 23 23 22 22 22 22 22
Wind_Direction
219 219 217 215 214 218 225 228 229 231 230 229 234 242 249 255 263 277 295 307 309 315 319 317 318 320 319 315 313 311 309 307 307 307 306 307 307 306 308 308 308 308 307 305 302 298 297 298 296
220 221 219 217 214 219 230 232 235 238 242 241 242 249 257 266 272 285 294 298 300 305 309 308 309 313 313 310 308 307 307 304 302 302 302 302 302 301 302 301 301 301 299 297 296 293 292 292 292
222 222 222 220 218 219 229 234 240 242 249 251 252 259 268 277 279 290 296 295 293 297 301 301 304 309 310 307 304 303 303 301 298 298 298 298 297 296 296 296 295 295 294 292 291 289 289 288 288
225 225 226 226 226 228 233 237 243 247 252 255 260 268 273 280 285 289 291 291 292 293 297 298 300 303 304 303 301 299 299 297 294 295 295 296 295 293 293 292 292 293 293 291 288 287 285 283 284
225 226 228 231 233 235 237 239 243 248 253 257 262 270 274 279 285 288 290 291 290 291 294 296 297 298 298 299 295 295 295 294 292 291 292 293 293 292 291 290 289 289 289 289 287 286 283 279 280
224 226 227 233 238 240 242 242 244 249 254 258 264 269 274 278 284 285 287 288 288 289 290 292 294 295 294 292 291 290 291 292 291 290 290 291 293 292 290 289 289 288 288 289 288 285 281 278 278
225 226 229 234 239 243 245 244 246 252 256 262 267 270 272 276 280 283 283 284 286 289 289 291 292 291 290 289 289 289 288 289 289 288 288 290 290 290 289 288 288 288 288 288 287 284 280 278 279
225 228 232 235 239 245 248 250 253 256 259 263 267 269 272 277 281 283 282 282 285 289 292 290 288 289 290 289 287 286 286 286 287 287 287 287 287 287 286 286 285 285 287 288 286 283 281 279 277
224 227 232 235 239 246 251 255 258 260 263 265 268 269 272 276 279 283 283 281 281 284 287 289 287 287 287 287 286 284 284 285 287 289 288 287 286 284 283 283 282 283 284 286 286 283 281 279 277
222 225 231 235 240 247 253 257 262 264 267 268 269 271 274 276 277 282 285 285 284 285 286 286 285 284 285 285 283 282 284 286 287 289 290 289 287 285 284 283 282 282 283 283 284 284 281 280 278
226 229 233 237 242 250 256 261 265 266 268 268 270 271 272 276 276 279 281 282 282 283 287 284 283 283 283 282 280 281 282 284 285 286 287 288 288 286 286 286 284 284 283 282 282 283 282 282 280
233 235 237 241 247 253 257 263 267 267 268 268 269 270 270 275 278 280 280 279 283 285 285 284 284 284 282 280 279 279 282 284 284 285 285 284 285 285 285 285 285 285 282 281 282 283 283 283 282
236 239 242 246 251 256 259 263 266 269 271 273 273 272 273 274 277 280 279 280 282 283 283 284 282 284 284 281 280 281 283 283 283 284 284 284 283 284 284 283 283 282 282 282 281 280 282 282 282
235 240 245 250 254 258 262 266 269 272 274 275 274 272 272 273 276 277 279 279 281 283 283 283 284 284 282 280 281 281 281 283 282 282 282 283 282 282 282 282 282 282 281 282 282 281 281 281 281
237 243 248 251 255 259 264 270 273 273 276 275 275 274 273 274 277 278 278 279 282 283 283 283 284 283 283 282 282 282 281 281 282 281 281 282 281 282 282 282 280 281 281 282 281 281 280 279 280
243 247 250 256 258 263 266 268 272 274 276 277 277 276 275 276 278 279 279 279 281 283 284 284 285 284 284 282 280 281 282 283 281 280 281 282 282 281 282 283 282 280 279 281 281 280 280 280 280
251 251 252 259 263 265 267 270 272 275 276 277 278 277 278 277 279 280 281 280 283 285 285 284 284 283 283 282 282 284 283 282 284 284 281 282 282 281 282 282 282 279 279 280 281 281 280 281 281
253 255 258 261 266 268 270 272 275 277 277 279 281 280 280 280 280 281 282 282 284 284 284 283 283 283 284 285 284 284 285 284 285 286 284 283 283 282 282 282 282 280 280 280 281 281 282 282 281
253 257 260 263 267 269 273 275 277 280 280 280 281 280 281 281 279 278 279 279 280 282 283 284 284 285 286 288 288 287 287 287 289 289 288 286 285 284 283 284 283 282 282 283 282 281 281 282 281
260 263 265 267 271 273 274 279 280 281 282 282 282 281 279 281 281 281 281 280 281 282 284 288 287 286 288 290 291 292 293 293 292 291 289 288 286 285 284 284 284 284 284 284 284 283 282 282 283
273 271 270 273 274 280 282 284 284 284 283 282 281 282 281 281 283 282 280 280 282 285 287 289 290 290 290 292 294 294 294 294 293 291 288 286 284 284 285 285 285 284 285 285 284 284 283 282 282
275 274 274 276 279 281 285 289 287 288 286 284 284 285 285 285 285 285 284 282 282 284 286 287 290 291 291 293 295 295 296 296 294 293 292 289 285 285 286 286 286 286 286 287 286 284 283 282 281
273 275 279 281 282 285 288 290 289 290 290 288 288 289 288 288 288 289 289 287 284 284 287 287 289 291 292 294 296 296 297 296 295 295 293 291 289 287 287 286 288 288 289 288 287 286 284 283 281
283 285 289 292 291 289 290 292 294 292 292 291 291 290 288 290 290 289 288 286 285 286 288 290 292 294 295 296 297 298 298 298 297 295 294 292 291 289 287 286 289 290 290 289 287 286 285 283 282
287 292 295 293 290 288 290 294 294 293 292 293 293 292 289 290 290 290 290 287 286 287 288 290 293 294 295 297 299 299 300 300 299 296 294 292 290 290 288 287 289 290 290 289 287 286 285 283 282
286 287 287 289 291 291 292 294 296 294 294 295 296 296 294 292 292 292 291 289 289 290 290 291 293 294 296 298 298 298 300 301 300 298 296 294 293 293 292 291 292 292 291 289 288 287 285 283 282
290 288 287 289 292 296 297 296 298 298 296 296 298 297 294 294 294 295 293 291 292 293 293 293 294 297 298 298 298 297 300 300 300 300 300 296 295 296 296 294 294 294 292 289 288 287 286 286 285
289 288 290 292 293 294 297 298 299 300 298 296 297 296 294 292 293 294 294 292 293 295 296 296 298 299 299 298 299 299 302 304 301 301 301 300 299 300 301 298 297 296 295 291 290 290 289 289 287
294 293 293 292 292 293 297 297 298 298 297 295 292 292 292 293 293 294 294 293 294 295 296 298 300 301 301 299 302 303 306 306 304 304 304 303 303 303 304 304 302 301 299 297 295 292 290 290 289
294 295 297 296 295 295 298 300 301 301 297 293 291 290 291 292 293 292 292 292 293 295 298 301 303 303 303 303 303 305 308 309 308 306 305 305 306 307 307 307 307 304 302 299 296 294 293 291 289
Height
5895 5897 5900 5902 5905 5906 5907 5907 5908 5908 5909 5909 5909 5908 5908 5909 5909 5910 5907 5905 5905 5904 5903 5903 5903 5903 5902 5901 5900 5899 5898 5897 5896 5894 5893 5892 5891 5890 5889 5889 5888 5887 5886 5885 5884 5884 5883 5883 5882
5893 5895 5898 5901 5903 5906 5906 5905 5906 5907 5907 5908 5907 5907 5907 5907 5906 5906 5905 5904 5903 5903 5902 5902 5901 5901 5900 5899 5898 5897 5896 5895 5894 5892 5891 5890 5889 5888 5887 5886 5886 5885 5884 5883 5882 5881 5881 5880 5879
5891 5893 5896 5899 5901 5904 5904 5903 5904 5905 5905 5906 5906 5906 5906 5905 5905 5904 5903 5903 5902 5901 5900 5900 5899 5899 5898 5897 5896 5895 5894 5893 5891 5890 5889 5888 5887 5886 5885 5884 5883 5882 5881 5880 5879 5879 5878 5877 5877
5888 5892 5895 5898 5899 5900 5900 5901 5902 5903 5903 5904 5904 5904 5904 5904 5903 5903 5902 5901 5900 5899 5898 5898 5897 5896 5895 5894 5893 5892 5891 5890 5889 5888 5887 5886 5884 5883 5882 5881 5881 5880 5879 5878 5877 5876 5875 5874 5874
5886 5889 5893 5894 5896 5897 5898 5899 5900 5901 5901 5901 5902 5902 5902 5902 5901 5900 5899 5898 5898 5897 5896 5895 5894 5894 5893 5892 5891 5889 5888 5887 5886 5885 5884 5883 5882 5881 5880 5879 5878 5877 5876 5874 5874 5873 5872 5871 5871
5885 5888 5891 5892 5893 5894 5895 5896 5898 5898 5899 5899 5900 5900 5899 5899 5898 5898 5897 5896 5895 5894 5893 5892 5892 5891 5890 5889 5887 5886 5885 5884 5883 5882 5881 5879 5878 5877 5876 5875 5874 5873 5872 5871 5870 5869 5868 5868 5867
5883 5886 5888 5890 5891 5891 5893 5894 5895 5896 5896 5897 5897 5897 5897 5896 5896 5895 5894 5893 5892 5891 5890 5889 5888 5887 5886 5885 5884 5883 5881 5880 5879 5878 5877 5876 5875 5874 5873 5872 5871 5870 5869 5868 5867 5866 5865 5864 5863
5880 5884 5886 5887 5888 5889 5890 5891 5893 5893 5894 5895 5894 5894 5894 5894 5893 5892 5891 5890 5889 5888 5887 5887 5885 5884 5883 5882 5880 5879 5878 5877 5876 5875 5873 5872 5871 5870 5869 5868 5867 5866 5865 5864 5863 5862 5861 5860 5859
5878 5883 5884 5885 5886 5887 5888 5889 5890 5890 5891 5892 5891 5891 5891 5890 5890 5889 5888 5887 5886 5885 5884 5883 5882 5881 5879 5878 5876 5875 5874 5873 5872 5871 5869 5868 5867 5865 5864 5863 5862 5861 5860 5859 5858 5857 5857 5856 5855
5877 5880 5881 5882 5883 5884 5885 5886 5887 5888 5888 5889 5889 5888 5888 5887 5887 5886 5885 5884 5884 5882 5881 5880 5878 5877 5876 5874 5872 5871 5870 5869 5868 5866 5865 5863 5862 5860 5859 5858 5857 5856 5855 5854 5853 5852 5852 5851 5850
5874 5876 5878 5879 5881 5882 5883 5884 5885 5885 5886 5886 5885 5885 5885 5884 5883 5882 5882 5881 5880 5879 5878 5876 5874 5873 5872 5870 5869 5867 5866 5864 5863 5862 5860 5858 5857 5855 5854 5853 5852 5851 5850 5849 5848 5847 5847 5846 5845
5873 5874 5875 5877 5878 5879 5880 5881 5881 5882 5882 5882 5882 5881 5881 5880 5880 5879 5878 5877 5876 5875 5873 5872 5870 5869 5867 5866 5864 5863 5861 5860 5858 5857 5855 5854 5853 5851 5850 5849 5847 5846 5845 5844 5843 5842 5842 5840 5840
5871 5872 5873 5875 5876 5876 5877 5878 5878 5878 5878 5878 5878 5878 5877 5877 5876 5875 5874 5873 5872 5871 5869 5868 5866 5864 5863 5861 5860 5858 5857 5855 5853 5852 5851 5849 5848 5847 5845 5844 5842 5841 5839 5839 5838 5837 5836 5835 5834
5869 5870 5871 5872 5873 5874 5874 5875 5875 5875 5875 5875 5874 5874 5873 5873 5872 5871 5870 5869 5868 5866 5865 5863 5862 5860 5859 5857 5855 5853 5852 5850 5848 5847 5845 5844 5843 5841 5840 5838 5837 5835 5834 5833 5832 5831 5830 5829 5828
5867 5869 5870 5870 5870 5871 5872 5873 5872 5872 5871 5871 5870 5870 5869 5868 5868 5867 5866 5865 5863 5862 5860 5859 5857 5855 5854 5852 5850 5848 5846 5844 5843 5841 5840 5838 5837 5835 5834 5832 5831 5830 5828 5827 5826 5825 5823 5822 5821
5866 5868 5869 5868 5868 5868 5871 5870 5869 5868 5868 5867 5866 5865 5865 5864 5863 5862 5861 5860 5858 5857 5855 5853 5852 5850 5848 5846 5844 5843 5841 5839 5837 5835 5834 5832 5831 5829 5828 5826 5825 5823 5822 5821 5819 5818 5816 5815 5814
5865 5866 5866 5866 5865 5865 5866 5866 5866 5864 5864 5863 5862 5861 5860 5859 5858 5857 5856 5855 5853 5852 5850 5848 5846 5845 5843 5841 5839 5838 5836 5834 5831 5829 5827 5826 5824 5823 5821 5820 5818 5816 5815 5814 5812 5811 5810 5808 5807
5863 5863 5863 5863 5862 5862 5862 5862 5862 5860 5860 5858 5857 5856 5856 5855 5853 5852 5850 5849 5848 5846 5845 5843 5841 5840 5838 5836 5834 5832 5830 5828 5826 5824 5821 5819 5818 5816 5814 5813 5811 5809 5808 5807 5805 5804 5803 5801 5800
5860 5860 5860 5860 5859 5858 5858 5858 5858 5856 5856 5854 5853 5852 5851 5850 5848 5847 5845 5843 5842 5841 5839 5838 5836 5834 5832 5830 5828 5826 5824 5822 5820 5817 5815 5812 5810 5809 5807 5805 5804 5802 5801 5799 5798 5796 5795 5794 5792
5857 5857 5857 5857 5856 5855 5855 5854 5853 5852 5851 5850 5849 5848 5847 5845 5844 5842 5840 5838 5837 5836 5835 5833 5831 5829 5827 5825 5822 5820 5818 5816 5813 5810 5808 5805 5803 5802 5800 5798 5796 5795 5793 5791 5790 5788 5787 5785 5784
5854 5854 5854 5853 5853 5852 5851 5851 5849 5848 5847 5846 5845 5843 5842 5841 5839 5837 5835 5834 5832 5831 5830 5828 5826 5823 5822 5819 5817 5814 5812 5809 5806 5804 5801 5799 5797 5795 5792 5790 5789 5787 5785 5783 5781 5780 5779 5777 5775
5851 5850 5850 5849 5849 5849 5848 5847 5846 5844 5843 5841 5840 5838 5837 5836 5834 5832 5830 5829 5827 5826 5824 5822 5820 5818 5816 5814 5811 5808 5805 5802 5799 5796 5794 5791 5789 5787 5785 5783 5781 5779 5777 5775 5773 5772 5770 5768 5766
5847 5846 5846 5845 5845 5844 5844 5843 5843 5840 5838 5837 5835 5833 5832 5831 5829 5827 5825 5823 5822 5820 5819 5817 5815 5813 5810 5808 5805 5802 5799 5796 5792 5789 5786 5784 5782 5780 5777 5776 5774 5772 5770 5767 5765 5763 5762 5760 5758
5843 5843 5842 5841 5841 5841 5840 5840 5839 5836 5833 5831 5830 5829 5827 5826 5824 5822 5820 5818 5816 5815 5813 5811 5809 5807 5805 5802 5799 5796 5793 5789 5786 5782 5779 5777 5775 5772 5770 5768 5766 5764 5762 5759 5757 5755 5753 5751 5750
5840 5840 5840 5840 5839 5838 5836 5834 5834 5831 5828 5826 5825 5824 5822 5821 5819 5817 5815 5813 5812 5810 5808 5806 5804 5802 5799 5796 5793 5789 5786 5782 5779 5776 5773 5770 5768 5765 5763 5761 5758 5756 5753 5751 5749 5747 5745 5743 5741
5836 5836 5837 5835 5834 5833 5831 5830 5829 5826 5823 5821 5820 5818 5817 5815 5814 5812 5810 5808 5806 5804 5802 5800 5798 5796 5793 5790 5786 5783 5780 5776 5772 5769 5766 5763 5761 5758 5756 5753 5751 5748 5745 5743 5740 5738 5736 5734 5733
5832 5831 5831 5830 5828 5827 5827 5826 5824 5820 5819 5817 5815 5813 5812 5810 5808 5806 5804 5802 5801 5799 5797 5795 5793 5790 5787 5784 5780 5777 5773 5770 5766 5763 5760 5757 5754 5752 5749 5746 5743 5740 5737 5735 5732 5730 5728 5726 5725
5828 5826 5825 5825 5823 5823 5822 5821 5820 5816 5814 5812 5810 5808 5806 5805 5803 5801 5799 5797 5795 5794 5792 5789 5787 5785 5782 5778 5775 5771 5768 5764 5761 5758 5754 5751 5749 5746 5743 5740 5736 5733 5730 5727 5725 5723 5721 5719 5717
5823 5822 5820 5820 5819 5818 5816 5818 5815 5811 5809 5807 5805 5803 5801 5800 5798 5796 5794 5792 5791 5789 5787 5784 5782 5779 5776 5773 5769 5766 5762 5759 5755 5752 5749 5746 5743 5740 5737 5733 5730 5727 5724 5721 5718 5716 5714 5712 5711
5818 5817 5816 5815 5813 5812 5811 5813 5808 5806 5803 5801 5800 5798 5796 5795 5793 5791 5789 5788 5786 5784 5782 5779 5777 5774 5771 5767 5764 5761 5757 5754 5750 5747 5744 5741 5737 5734 5731 5728 5724 5721 5718 5715 5712 5710 5708 5706 5704